User: anonymous   Login
Location: Unspecified
(0.0000°N, 0.0000°E)
Time: 19:19:14
(UTC+00:00)
Language:

GONETS M 12 (M22) - Orbit

View from above orbital plane
View from above orbital plane
View from above satellite
View from above satellite

Ground track
Ground track

The orbit data is extracted from the following two-line orbital elements,

1 40553U 15020B   19077.66661459 +.00000022 +00000-0 +85208-4 0  9993
2 40553 082.4862 240.9161 0014718 004.5315 355.5891 12.42886718179887
Epoch (UTC): 18 March 2019 15:59:55
Eccentricity: 0.0014718
inclination: 82.4862°
perigee height: 1483 km
apogee height: 1506 km
right ascension of ascending node: 240.9161°
argument of perigee: 4.5315°
revolutions per day: 12.42886718
mean anomaly at epoch: 355.5891°
orbit number at epoch: 17988

The dashed part of the orbit path shows where the satellite is in the earth's shadow,  

DLR